Weather History for Hobart, OK

Change the Weather History Date:

Friday, August 23, 2013

  Actual Average Record
Temperature  
Mean Temperature 86 °F -  
Max Temperature 100 °F 91 °F 107 °F (2010)
Min Temperature 72 °F 68 °F 64 °F (1996)
Cooling Degree Days 20    
Growing Degree Days 36 (Base 50)    
Moisture  
Dew Point 62 °F    
Average Humidity 49    
Maximum Humidity 79    
Minimum Humidity 24    
Precipitation  
Precipitation 0.00 in - - ()
Sea Level Pressure  
Sea Level Pressure 29.95 in    
Wind  
Wind Speed 8 mph (SSE)    
Max Wind Speed 16 mph    
Max Gust Speed 18 mph    
Visibility 10 miles    
Events      
Averages and records for this station are not official NWS values.
T = Trace of Precipitation, MM = Missing Value Source: NWS Daily Summary

Daily Weather History Graph

Daily Weather History Graph

Search for Another Location

Airport:

Trip Planner

Search our weather history database for the weather conditions in past years. The results will help you decide how hot, cold, wet, or windy it might be!

Date:

Astronomy

Aug. 23, 2013 Rise Set
Actual Time 7:02 AM CDT 8:14 PM CDT
Civil Twilight 6:36 AM CDT 8:40 PM CDT
Nautical Twilight 6:04 AM CDT 9:11 PM CDT
Astronomical Twilight 5:32 AM CDT 9:44 PM CDT
Moon 9:44 PM CDT (8/23) 9:50 AM CDT (8/23)
Length of Visible Light 14h 04m
Length of Day
13h 11m
Waning Gibbous, 91% of the Moon is Illuminated
Aug 23
Waning Gibbous
Aug 28
Last Quarter
Sep 5
New
Sep 12
First Quarter
Sep 19
Full

Hourly Weather History & Observations

Time (CDT) Temp. Heat Index Dew Point Humidity Pressure Visibility Wind Dir Wind Speed Gust Speed Precip Events Conditions
12:53 AM 80.1 °F 81.5 °F 63.0 °F 56% 29.96 in 10.0 mi ESE 6.9 mph - N/A   Clear
1:53 AM 75.0 °F - 64.0 °F 69% 29.97 in 10.0 mi ESE 8.1 mph - N/A   Clear
2:53 AM 73.0 °F - 64.9 °F 76% 29.97 in 10.0 mi East 5.8 mph - N/A   Clear
3:53 AM 73.0 °F - 66.0 °F 79% 29.97 in 10.0 mi East 3.5 mph - N/A   Clear
4:53 AM 72.0 °F - 64.0 °F 76% 29.96 in 10.0 mi SSE 6.9 mph - N/A   Clear
5:53 AM 72.0 °F - 63.0 °F 73% 29.96 in 10.0 mi Calm Calm - N/A   Clear
6:53 AM 72.0 °F - 63.0 °F 73% 29.96 in 10.0 mi South 10.4 mph - N/A   Clear
7:53 AM 75.9 °F - 64.0 °F 67% 29.98 in 10.0 mi South 10.4 mph - N/A   Clear
8:53 AM 82.9 °F 84.0 °F 63.0 °F 51% 29.99 in 10.0 mi South 12.7 mph - N/A   Clear
9:53 AM 86.0 °F 86.8 °F 63.0 °F 46% 30.00 in 10.0 mi South 6.9 mph - N/A   Clear
10:53 AM 91.0 °F 91.9 °F 63.0 °F 39% 30.00 in 10.0 mi SW 10.4 mph - N/A   Clear
11:53 AM 93.0 °F 93.0 °F 61.0 °F 34% 29.99 in 10.0 mi SW 13.8 mph 18.4 mph N/A   Clear
12:53 PM 96.1 °F 96.0 °F 60.1 °F 30% 29.98 in 10.0 mi South 6.9 mph 16.1 mph N/A   Partly Cloudy
1:53 PM 95.0 °F 93.4 °F 55.9 °F 27% 29.96 in 10.0 mi SSE 8.1 mph 17.3 mph N/A   Scattered Clouds
2:53 PM 98.1 °F 96.4 °F 55.9 °F 24% 29.94 in 10.0 mi Variable 4.6 mph 18.4 mph N/A   Scattered Clouds
3:53 PM 98.1 °F 96.4 °F 55.9 °F 24% 29.92 in 10.0 mi Calm Calm - N/A   Partly Cloudy
4:53 PM 99.0 °F 97.7 °F 55.9 °F 24% 29.90 in 10.0 mi SSE 11.5 mph - N/A   Clear
5:53 PM 97.0 °F 96.5 °F 59.0 °F 28% 29.88 in 10.0 mi SE 15.0 mph - N/A   Clear
6:53 PM 95.0 °F 95.2 °F 61.0 °F 32% 29.88 in 10.0 mi SE 16.1 mph - N/A   Clear
7:53 PM 91.0 °F 91.5 °F 62.1 °F 38% 29.90 in 10.0 mi SE 12.7 mph - N/A   Clear
8:53 PM 87.1 °F 87.5 °F 62.1 °F 43% 29.92 in 10.0 mi SSE 15.0 mph - N/A   Clear
9:53 PM 84.0 °F 84.9 °F 63.0 °F 49% 29.96 in 10.0 mi SE 11.5 mph - N/A   Clear
10:53 PM 82.9 °F 85.4 °F 66.9 °F 58% 29.96 in 10.0 mi SE 12.7 mph - N/A   Clear
11:53 PM 81.0 °F 83.0 °F 66.0 °F 60% 29.97 in 10.0 mi SE 9.2 mph - N/A   Clear